Auburn, IN

6:16 PM EDT on September 26, 2017 (GMT -0400)
Auburn

Weather History for KGWB - October, 2013

Change the Weather History Date:

Wednesday, October 9, 2013

  Actual Average (KFWA) Record (KFWA)
Temperature  
Mean Temperature 56 °F -  
Max Temperature 71 °F 63 °F 86 °F (1949)
Min Temperature 41 °F 44 °F 26 °F (1989)
Degree Days  
Heating Degree Days 9    
Growing Degree Days 6 (Base 50)    
Moisture  
Dew Point 41 °F    
Average Humidity 66    
Maximum Humidity 93    
Minimum Humidity 27    
Precipitation  
Precipitation 0.00 in - - ()
Sea Level Pressure  
Sea Level Pressure 30.25 in    
Wind  
Wind Speed 3 mph (East)    
Max Wind Speed 12 mph    
Max Gust Speed -    
Averages and records for this station are not official NWS values.
T = Trace of Precipitation, MM = Missing Value Source: NWS Daily Summary

Daily Weather History Graph

Daily Weather History Graph

Search for Another Location

Airport or City:

Trip Planner

Search our weather history database for the weather conditions in past years. The results will help you decide how hot, cold, wet, or windy it might be!

Date:

Astronomy

Oct. 09, 2013 Rise Set
Actual Time 7:45 AM EDT 7:08 PM EDT
Civil Twilight 7:18 AM EDT 7:36 PM EDT
Nautical Twilight 6:46 AM EDT 8:08 PM EDT
Astronomical Twilight 6:13 AM EDT 8:40 PM EDT
Moon 12:42 PM EDT (10/9) 10:39 PM EDT (10/9)
Length of Visible Light 12h 18m
Length of Day
11h 22m
Waxing Crescent, 25% of the Moon is Illuminated
Oct 9
Waxing Crescent
Oct 11
First Quarter
Oct 18
Full
Oct 26
Last Quarter
Nov 3
New

Hourly Weather History & Observations

Time (EDT) Temp. Windchill Dew Point Humidity Pressure Visibility Wind Dir Wind Speed Gust Speed Precip Events Conditions
12:15 AM 44.6 °F 43.1 °F 41.0 °F 87% 30.25 in - East 3.5 mph - N/A   Unknown
12:35 AM 46.4 °F 44.3 °F 41.0 °F 81% 30.25 in - East 4.6 mph - N/A   Clear
12:55 AM 48.2 °F - 41.0 °F 76% 30.24 in - East 4.6 mph - N/A   Clear
1:15 AM 48.2 °F - 41.0 °F 76% 30.24 in - East 4.6 mph - N/A   Clear
1:35 AM 46.4 °F 45.2 °F 41.0 °F 81% 30.24 in - East 3.5 mph - N/A   Clear
1:55 AM 46.4 °F 45.2 °F 41.0 °F 81% 30.25 in - ESE 3.5 mph - N/A   Clear
2:15 AM 46.4 °F 45.2 °F 41.0 °F 81% 30.25 in - East 3.5 mph - N/A   Clear
2:35 AM 44.6 °F 43.1 °F 41.0 °F 87% 30.25 in - East 3.5 mph - N/A   Unknown
2:55 AM 46.4 °F 45.2 °F 42.8 °F 87% 30.25 in - ESE 3.5 mph - N/A   Clear
3:15 AM 44.6 °F - 41.0 °F 87% 30.25 in - Calm Calm - N/A   Clear
3:35 AM 42.8 °F - 39.2 °F 87% 30.25 in - Calm Calm - N/A   Unknown
3:55 AM 42.8 °F - 41.0 °F 93% 30.25 in - Calm Calm - N/A   Unknown
4:15 AM 42.8 °F - 41.0 °F 93% 30.25 in - Calm Calm - N/A   Unknown
4:35 AM 44.6 °F - 41.0 °F 87% 30.25 in - Calm Calm - N/A   Unknown
4:55 AM 41.0 °F - 39.2 °F 93% 30.25 in - Calm Calm - N/A   Unknown
5:15 AM 41.0 °F 39.0 °F 39.2 °F 93% 30.25 in - East 3.5 mph - N/A   Unknown
5:35 AM 41.0 °F - 39.2 °F 93% 30.26 in - Calm Calm - N/A   Unknown
5:55 AM 42.8 °F - 41.0 °F 93% 30.26 in - Calm Calm - N/A   Unknown
6:15 AM 41.0 °F 39.0 °F 39.2 °F 93% 30.26 in - East 3.5 mph - N/A   Unknown
6:35 AM 42.8 °F 41.1 °F 41.0 °F 93% 30.26 in - East 3.5 mph - N/A   Unknown
6:55 AM 42.8 °F - 41.0 °F 93% 30.27 in - Calm Calm - N/A   Unknown
7:15 AM 42.8 °F - 41.0 °F 93% 30.27 in - Calm Calm - N/A   Unknown
7:35 AM 42.8 °F - 41.0 °F 93% 30.27 in - Calm Calm - N/A   Unknown
7:55 AM 41.0 °F - 39.2 °F 93% 30.28 in - Calm Calm - N/A   Unknown
8:15 AM 41.0 °F - 39.2 °F 93% 30.28 in - Calm Calm - N/A   Unknown
8:35 AM 42.8 °F - 41.0 °F 93% 30.28 in - Calm Calm - N/A   Unknown
8:55 AM 44.6 °F - 42.8 °F 93% 30.29 in - Calm Calm - N/A   Unknown
9:15 AM 48.2 °F - 46.4 °F 93% 30.29 in - Calm Calm - N/A   Unknown
9:35 AM 51.8 °F - 46.4 °F 82% 30.30 in - East 3.5 mph - N/A   Unknown
9:55 AM 53.6 °F - 46.4 °F 77% 30.30 in - East 4.6 mph - N/A   Clear
10:15 AM 55.4 °F - 46.4 °F 72% 30.30 in - East 4.6 mph - N/A   Clear
10:35 AM 59.0 °F - 46.4 °F 63% 30.30 in - East 4.6 mph - N/A   Clear
10:55 AM 59.0 °F - 46.4 °F 63% 30.30 in - East 4.6 mph - N/A   Clear
11:15 AM 60.8 °F - 44.6 °F 55% 30.30 in - East 4.6 mph - N/A   Clear
11:35 AM 62.6 °F - 46.4 °F 55% 30.29 in - ENE 6.9 mph - N/A   Clear
11:55 AM 62.6 °F - 44.6 °F 52% 30.29 in - ENE 6.9 mph - N/A   Clear
12:15 PM 64.4 °F - 42.8 °F 45% 30.28 in - ESE 5.8 mph - N/A   Clear
12:35 PM 66.2 °F - 42.8 °F 43% 30.28 in - East 6.9 mph - N/A   Clear
12:55 PM 68.0 °F - 41.0 °F 37% 30.28 in - ESE 5.8 mph - N/A   Clear
1:15 PM 68.0 °F - 41.0 °F 37% 30.27 in - East 8.1 mph - N/A   Clear
1:35 PM 68.0 °F - 41.0 °F 37% 30.26 in - East 8.1 mph - N/A   Clear
1:55 PM 69.8 °F - 41.0 °F 35% 30.25 in - East 10.4 mph - N/A   Clear
2:15 PM 69.8 °F - 39.2 °F 33% 30.24 in - East 9.2 mph - N/A   Clear
2:35 PM 69.8 °F - 41.0 °F 35% 30.24 in - ESE 9.2 mph - N/A   Clear
2:55 PM 71.6 °F - 39.2 °F 31% 30.23 in - East 11.5 mph - N/A   Clear
3:15 PM 69.8 °F - 39.2 °F 33% 30.23 in - ESE 9.2 mph - N/A   Clear
3:35 PM 71.6 °F - 39.2 °F 31% 30.22 in - East 6.9 mph - N/A   Clear
3:55 PM 71.6 °F - 41.0 °F 33% 30.22 in - East 9.2 mph - N/A   Clear
4:15 PM 71.6 °F - 39.2 °F 31% 30.21 in - ESE 5.8 mph - N/A   Clear
4:55 PM 71.6 °F - 37.4 °F 29% 30.20 in - East 4.6 mph - N/A   Clear
5:15 PM 71.6 °F - 35.6 °F 27% 30.20 in - East 5.8 mph - N/A   Clear
5:35 PM 71.6 °F - 35.6 °F 27% 30.20 in - East 5.8 mph - N/A   Clear
5:55 PM 69.8 °F - 35.6 °F 28% 30.20 in - ESE 4.6 mph - N/A   Clear
6:15 PM 69.8 °F - 35.6 °F 28% 30.20 in - ESE 3.5 mph - N/A   Clear
6:35 PM 68.0 °F - 37.4 °F 33% 30.20 in - ESE 3.5 mph - N/A   Clear
6:55 PM 64.4 °F - 35.6 °F 34% 30.20 in - Calm Calm - N/A   Clear
7:15 PM 60.8 °F - 41.0 °F 48% 30.20 in - Calm Calm - N/A   Clear
7:55 PM 55.4 °F - 42.8 °F 63% 30.20 in - Calm Calm - N/A   Clear
8:15 PM 55.4 °F - 41.0 °F 58% 30.20 in - Calm Calm - N/A   Clear
8:35 PM 53.6 °F - 41.0 °F 62% 30.21 in - ENE 5.8 mph - N/A   Clear
8:55 PM 51.8 °F - 41.0 °F 67% 30.21 in - ENE 5.8 mph - N/A   Clear
9:35 PM 51.8 °F - 41.0 °F 67% 30.21 in - East 5.8 mph - N/A   Clear
9:55 PM 51.8 °F - 41.0 °F 67% 30.21 in - ENE 6.9 mph - N/A   Clear
10:15 PM 53.6 °F - 42.8 °F 67% 30.21 in - East 5.8 mph - N/A   Clear
10:35 PM 53.6 °F - 41.0 °F 62% 30.21 in - East 3.5 mph - N/A   Clear
10:55 PM 51.8 °F - 42.8 °F 71% 30.21 in - East 3.5 mph - N/A   Clear
11:15 PM 50.0 °F - 41.0 °F 71% 30.21 in - Calm Calm - N/A   Clear
11:35 PM 50.0 °F - 42.8 °F 76% 30.21 in - Calm Calm - N/A   Clear
11:55 PM 50.0 °F - 41.0 °F 71% 30.21 in - Calm Calm - N/A   Clear